AirNav   Everest Fuels
 
 1110 users online  

5FL7 Twelve Oaks Airport
Hernando, Florida, USA

GOING TO HERNANDO?


FAA INFORMATION EFFECTIVE 21 MAY 2020

Location

FAA Identifier: 5FL7
Lat/Long: 28-58-40.9240N 082-21-49.3470W
28-58.682067N 082-21.822450W
28.9780344,-82.3637075
(estimated)
Elevation: 50 ft. / 15.2 m (surveyed)
Variation: 02W (1985)
From city: 4 miles NE of HERNANDO, FL
Time zone: UTC -4 (UTC -5 during Standard Time)
Zip code: 34442

Airport Operations

Airport use: Private use. Permission required prior to landing
Activation date: 07/1978
Control tower: no
ARTCC: JACKSONVILLE CENTER
FSS: SAINT PETERSBURG FLIGHT SERVICE STATION
Attendance: IREG
Wind indicator: yes
Segmented circle: yes
LOCATED AT WIND INDICATOR; WEST SIDE OF APPROACH END OF RY 22.
Lights: SS-SR

Airport Communications

WX AWOS-3 at INF (11 nm S): 119.975 (352-560-6012)
WX AWOS-3 at CGC (13 nm SW): 118.325 (352-563-6600)
WX AWOS-3PT at OCF (14 nm NE): 128.125 (352-237-8525)

Nearby radio navigation aids

VOR radial/distance  VOR name  Freq  Var
OCFr211/14.0OCALA VORTAC113.7000E

Airport Services

Runway Information

Runway 4/22

Dimensions: 2600 x 100 ft. / 792 x 30 m
Surface: turf
Runway edge lights: low intensity
RUNWAY 4  RUNWAY 22
Latitude: 28-58.544000N28-58.860047N
Longitude: 082-22.018000W082-21.688083W
Traffic pattern: leftleft
Displaced threshold: 400 ft.no
Obstructions: 50 ft. trees, marked, 600 ft. from runway50 ft. trees, 200 ft. from runway

Airport Ownership and Management from official FAA records

Ownership: Privately-owned
Owner: TWELVE OAKS HOMEOWNERS ASSN
PO BOX 34
HOLDER, FL 34445
Manager: TWELVE OAKS HOMEOWNERS ASSN
P.O. BOX 34
HOLDER, FL 34445
Phone (352) 344-3813
SECRETARY - HOA. ASSOCIATION PRES - KNUTE LINGAARD 352-344-3813

Airport Operational Statistics

Aircraft based on the field: 26
Single engine airplanes: 25
Ultralights: 1
    
Aircraft operations: avg 25/month
100% local general aviation

Additional Remarks

FREQ - 122.9
FOR CD CTC JACKSONVILLE APCH AT 904-741-0284.

Instrument Procedures

There are no published instrument procedures at 5FL7.

Some nearby airports with instrument procedures:

X35 - Marion County Airport (5 nm N)
KINF - Inverness Airport (11 nm S)
KCGC - Crystal River Airport-Captain Tom Davis Field (13 nm SW)
KOCF - Ocala International Airport-Jim Taylor Field (14 nm NE)
X60 - Williston Municipal Airport (23 nm N)
 
Loc | Ops | Rwys | IFR | FBO | Links
Com | Nav | Svcs | Stats | Notes


 
Area around 5FL7 (Twelve Oaks Airport)
 
Road maps at: MapQuest Bing Google
 
Aerial photo
WARNING: Photo may not be current or correct
Aerial photo of 5FL7 (Twelve Oaks Airport)
Photo taken 10-Aug-2015
looking southwest.

Do you have a better or more recent aerial photo of Twelve Oaks Airport that you would like to share? If so, please send us your photo.

 
Sectional chart

 
Airport distance calculator
Flying to Twelve Oaks Airport? Find the distance to fly.

From to 5FL7

Sunrise and sunset
Times for 03-Jun-2020
 Local
(UTC-4)
 Zulu
(UTC)
Morning civil twilight06:0510:05
Sunrise06:3210:32
Sunset20:2400:24
Evening civil twilight20:5100:51

Current date and time
Zulu (UTC)  03-Jun-2020 13:44:17
Local (UTC-4)  03-Jun-2020 09:44:17
 
METAR
KINF 
11nm S 
031335Z AUTO 10003KT 5SM BR CLR 25/25 A3009 RMK AO2
KCGC 
13nm SW 
031335Z AUTO 11003KT 10SM CLR 25/21 A3009 RMK AO2 LTG DSNT SE
KOCF 
14nm NE 
031251Z VRB04KT 10SM CLR 24/22 A3010 RMK AO2 SLP193 T02390217 $
TAF
KLEE 
30nm E 
031131Z 0312/0412 08004KT P6SM SCT080 OVC250 FM031500 11007KT P6SM VCSH SCT035 BKN050 FM031700 11011KT P6SM -SHRA BKN035 OVC060 TEMPO 0318/0322 3SM SHRA BKN020 FM040100 12004KT P6SM VCSH SCT035 BKN060
NOTAMs
Click for the latest NOTAMs
NOTAMs are issued by the DoD/FAA and will open in a separate window not controlled by AirNav.

 

 
 

Would you like to see your business listed on this page?

 If your business provides an interesting product or service to pilots, flight crews, aircraft, or users of the Twelve Oaks Airport, you should consider listing it here.  To start the listing process, click on the button below
 
Add a business
 

Other Pages about Twelve Oaks Airport

Update a link
 
Copyright © AirNav, LLC. All rights reserved. Privacy Policy  Contact